CW2399 Weather Reports


time (UTC)temp
C
wind
direction
speed
KPH
gust
KPH
rain 1hr
cm
rain 24hr
cm
rain mn
cm
humidity
%
barometer
mb
20260505035403 10 40 0.0 0.0 0.05 0.08 0.08 79 1003.6
20260505034403 10 96 0.0 0.0 0.05 0.08 0.08 79 1003.5
20260505033903 10 98 0.0 0.0 0.05 0.08 0.08 80 1003.5
20260505033403 10 98 0.0 0.0 0.08 0.08 0.08 80 1003.3
20260505032403 10 97 0.0 0.0 0.08 0.08 0.08 80 1003.1
20260505031903 10 95 0.0 3.2 0.08 0.08 0.08 80 1003.0
20260505031403 10 86 0.0 4.8 0.05 0.05 0.05 80 1003.0
20260505030904 10 53 0.0 1.6 0.05 0.05 0.05 78 1003.0
20260505030404 10 34 0.0 0.0 0.05 0.05 0.05 76 1003.1
20260505025903 11 350 0.0 0.0 0.05 0.05 0.05 73 1003.0
20260505025404 11 344 0.0 0.0 0.03 0.03 0.03 72 1002.9
20260505024403 11 184 4.8 19.3 0.03 0.03 0.03 69 1003.3
20260505023903 11 92 3.2 19.3 0.03 0.03 0.03 69 1003.1
20260505022903 12 106 6.4 20.9 0.00 0.00 0.00 66 1002.5
20260505022403 12 85 3.2 16.1 0.00 0.00 0.00 66 1002.4
20260505021904 13 34 8.0 16.1 0.00 0.00 0.00 59 1002.4
20260505021403 14 23 3.2 11.3 0.00 0.00 0.00 51 1002.1
20260505020904 14 22 0.0 0.0 0.00 0.00 0.00 50 1002.1
20260505020404 15 346 0.0 0.0 0.00 0.00 0.00 46 1001.9
20260505015404 15 314 3.2 24.1 0.00 0.00 0.00 44 1001.6
20260505014903 15 247 0.0 0.0 0.00 0.00 0.00 43 1001.6
20260505013903 15 308 0.0 9.7 0.00 0.00 0.00 43 1001.3
20260505013404 16 225 1.6 12.9 0.00 0.00 0.00 43 1001.2
20260505012904 16 245 3.2 11.3 0.00 0.00 0.00 43 1000.8
20260505012404 16 220 0.0 8.0 0.00 0.00 0.00 43 1000.7
20260505011903 17 233 0.0 9.7 0.00 0.00 0.00 40 1000.5
20260505010403 17 241 0.0 8.0 0.00 0.00 0.00 38 1000.2
20260505005903 17 234 3.2 12.9 0.00 0.00 0.00 37 1000.2
20260505005403 17 231 3.2 14.5 0.00 0.00 0.00 37 1000.2
20260505004404 17 224 3.2 12.9 0.00 0.00 0.00 36 1000.3
20260505003904 17 232 8.0 19.3 0.00 0.00 0.00 35 1000.3
20260505003404 17 221 11.3 24.1 0.00 0.00 0.00 35 1000.3
20260505002903 18 229 4.8 19.3 0.00 0.00 0.00 35 1000.3
20260505002404 18 224 12.9 27.4 0.00 0.00 0.00 34 1000.3
20260505001901 18 225 8.0 16.1 0.00 0.00 0.00 34 1000.0
20260505001401 18 235 4.8 14.5 0.00 0.00 0.00 32 1000.1
20260505000901 18 219 0.0 4.8 0.00 0.00 0.00 30 1000.0
20260504235901 18 218 0.0 16.1 0.00 0.00 0.00 30 1000.3
20260504235401 18 235 17.7 37.0 0.00 0.00 0.00 30 1000.3
20260504234901 18 226 8.0 14.5 0.00 0.00 0.00 30 1000.2
20260504234401 18 230 11.3 19.3 0.00 0.00 0.00 31 1000.1
20260504233901 19 233 8.0 14.5 0.00 0.00 0.00 30 1000.0
20260504233402 19 224 3.2 8.0 0.00 0.00 0.00 30 1000.1
20260504232901 19 220 1.6 11.3 0.00 0.00 0.00 31 1000.1
20260504232401 19 105 0.0 0.0 0.00 0.00 0.00 31 999.9
20260504231902 19 105 0.0 3.2 0.00 0.00 0.00 31 999.9
20260504231401 19 105 4.8 11.3 0.00 0.00 0.00 31 999.9
20260504230401 19 73 1.6 9.7 0.00 0.00 0.00 31 999.9
20260504225901 19 38 1.6 9.7 0.00 0.00 0.00 31 1000.0
20260504225401 19 25 1.6 12.9 0.00 0.00 0.00 30 1000.1
20260504224901 19 92 1.6 9.7 0.00 0.00 0.00 32 1000.2
20260504224401 18 69 1.6 11.3 0.00 0.00 0.00 33 1000.1
20260504223901 18 152 0.0 0.0 0.00 0.00 0.00 33 1000.4
20260504223401 18 153 3.2 4.8 0.00 0.00 0.00 32 1000.4
20260504222901 18 96 1.6 4.8 0.00 0.00 0.00 34 1000.5
20260504222401 18 22 0.0 0.0 0.00 0.00 0.00 37 1000.5
20260504221901 18 20 0.0 0.0 0.00 0.00 0.00 30 1000.6
20260504221401 18 334 0.0 0.0 0.00 0.00 0.00 30 1000.6
20260504220901 19 334 0.0 8.0 0.00 0.00 0.00 29 1000.6
20260504220401 20 314 4.8 12.9 0.00 0.00 0.00 30 1000.5
20260504215402 19 281 0.0 9.7 0.00 0.00 0.00 32 1000.7
20260504214901 18 248 0.0 4.8 0.00 0.00 0.00 32 1000.8
20260504214401 18 330 0.0 4.8 0.00 0.00 0.00 32 1000.9
20260504213401 19 228 0.0 0.0 0.00 0.00 0.00 32 1001.0
20260504212902 19 130 1.6 8.0 0.00 0.00 0.00 32 1001.1
20260504212402 19 240 1.6 11.3 0.00 0.00 0.00 31 1001.0
20260504211901 20 135 1.6 8.0 0.00 0.00 0.00 28 1001.0
20260504211402 20 242 0.0 4.8 0.00 0.00 0.00 27 1000.8
20260504205902 21 268 9.7 14.5 0.00 0.00 0.00 25 1000.5
20260504205402 21 258 1.6 11.3 0.00 0.00 0.00 25 1000.6
20260504204901 21 267 4.8 20.9 0.00 0.00 0.00 24 1000.7
20260504204401 21 272 0.0 11.3 0.00 0.00 0.00 24 1000.7
20260504203402 21 317 1.6 12.9 0.00 0.00 0.00 25 1000.9
20260504202901 21 285 1.6 12.9 0.00 0.00 0.00 26 1001.0
20260504202402 21 341 0.0 0.0 0.00 0.00 0.00 27 1001.1
20260504201902 21 310 4.8 14.5 0.00 0.00 0.00 26 1001.3
20260504200902 21 286 1.6 9.7 0.00 0.00 0.00 27 1001.4
20260504200401 21 224 1.6 11.3 0.00 0.00 0.00 26 1001.5
20260504195902 21 248 4.8 14.5 0.00 0.00 0.00 28 1001.5
20260504195402 20 255 4.8 14.5 0.00 0.00 0.00 29 1001.6
20260504193901 20 270 3.2 22.5 0.00 0.00 0.00 31 1001.7
20260504193401 20 246 9.7 24.1 0.00 0.00 0.00 31 1001.7
20260504192901 20 265 8.0 24.1 0.00 0.00 0.00 31 1001.8
20260504192402 20 281 8.0 24.1 0.00 0.00 0.00 31 1001.8
20260504191901 20 315 8.0 16.1 0.00 0.00 0.00 30 1001.7
20260504190901 20 305 4.8 11.3 0.00 0.00 0.00 28 1001.8
20260504190402 20 236 1.6 9.7 0.00 0.00 0.00 28 1001.9
20260504185902 20 270 1.6 9.7 0.00 0.00 0.00 27 1002.0
20260504185402 21 89 1.6 9.7 0.00 0.00 0.00 26 1002.0
20260504184901 21 289 0.0 4.8 0.00 0.00 0.00 25 1002.1
20260504184402 21 228 8.0 12.9 0.00 0.00 0.00 25 1002.2
20260504183902 21 256 3.2 9.7 0.00 0.00 0.00 25 1002.3
20260504182902 20 325 1.6 8.0 0.00 0.00 0.00 27 1002.6
20260504182401 18 22 0.0 8.0 0.00 0.00 0.00 28 1002.6
20260504181902 18 16 0.0 9.7 0.00 0.00 0.00 28 1002.6
20260504181402 18 24 0.0 1.6 0.00 0.00 0.00 27 1002.8
20260504175902 19 193 1.6 11.3 0.00 0.00 0.00 26 1003.0
20260504175401 20 218 1.6 11.3 0.00 0.00 0.00 28 1003.1
20260504174901 19 259 6.4 12.9 0.00 0.00 0.00 27 1003.1
20260504174401 19 228 1.6 8.0 0.00 0.00 0.00 28 1003.1
20260504173403 19 226 9.7 14.5 0.00 0.00 0.00 28 1003.2
20260504172901 20 190 4.8 14.5 0.00 0.00 0.00 28 1003.2
20260504172402 19 241 4.8 12.9 0.00 0.00 0.00 27 1003.3
20260504171902 20 227 3.2 9.7 0.00 0.00 0.00 27 1003.3
20260504170402 18 229 1.6 8.0 0.00 0.00 0.00 30 1003.6
20260504160402 16 224 4.8 14.5 0.00 0.00 0.00 38 1004.2
20260504150902 15 199 0.0 1.6 0.00 0.00 0.00 43 1004.7
20260504150401 15 199 0.0 0.0 0.00 0.00 0.00 44 1004.8
20260504140902 11 217 0.0 0.0 0.00 0.00 0.00 60 1005.0
20260504140402 11 217 0.0 0.0 0.00 0.00 0.00 59 1005.1
20260504110402 11 22 0.0 0.0 0.00 0.00 0.00 58 1004.9
20260504100402 12 176 0.0 11.3 0.00 0.00 0.00 52 1005.1
20260504081903 12 201 1.6 14.5 0.00 0.00 0.00 51 1005.7
20260504080903 12 183 0.0 1.6 0.00 0.00 0.00 50 1005.6
20260504080403 12 167 0.0 0.0 0.00 0.00 0.00 50 1005.6
20260504070403 13 203 0.0 0.0 0.00 0.00 0.00 44 1005.6
20260504050403 13 244 0.0 0.0 0.00 0.00 0.00 36 1005.0
20260504045903 13 244 0.0 0.0 0.00 0.00 0.00 35 1004.9
20260504045403 13 244 0.0 0.0 0.00 0.00 0.00 35 1004.9
20260504044903 13 243 0.0 8.0 0.00 0.00 0.00 33 1004.9
20260504044404 14 162 0.0 1.6 0.00 0.00 0.00 35 1004.8
20260504043903 15 138 0.0 0.0 0.00 0.00 0.00 33 1004.8
20260504043403 15 136 0.0 0.0 0.00 0.00 0.00 30 1004.7
20260504042903 15 119 0.0 1.6 0.00 0.00 0.00 30 1004.6
20260504042403 15 119 0.0 0.0 0.00 0.00 0.00 30 1004.6
20260504041903 15 119 0.0 4.8 0.00 0.00 0.00 30 1004.6
20260504040903 15 114 1.6 11.3 0.00 0.00 0.00 30 1004.6
20260504040403 15 105 1.6 11.3 0.00 0.00 0.00 30 1004.6
20260504035903 15 124 3.2 9.7 0.00 0.00 0.00 30 1004.6